RCH3314 ENOL-ETAR

Flight info

Callsign RCH3314
Flight time 2h 15m
Altitude 29000
Route UVEPI DCT OSVIG M604 SVA M609 RASVI DCT TUSKA DCT MALYK DCT ASBON
Aircraft C17/H-SDE1E2FGHIJ5RTUWXY/LB1D1

Departure

Time 2026-05-08 11:46
Airport Ørland Airport (ENOL)

Arrival

Time 2026-05-08 14:01
Airport Ramstein Air Base (ETAR)
Time Latitude Longitude Altitude Speed Heading
2026-05-08 11:23 63.69650 9.61577 33 ft 0 kts 94°
2026-05-08 11:39 63.69650 9.61578 33 ft 0 kts 94°
2026-05-08 11:39 63.69651 9.61557 31 ft 4 kts 95°
2026-05-08 11:39 63.69653 9.61492 29 ft 7 kts 108°
2026-05-08 11:40 63.69688 9.61446 28 ft 3 kts 188°
2026-05-08 11:40 63.69687 9.61445 29 ft 0 kts 188°
2026-05-08 11:40 63.69684 9.61445 29 ft 5 kts 188°
2026-05-08 11:41 63.69657 9.61358 30 ft 7 kts 262°
2026-05-08 11:41 63.69650 9.61193 30 ft 13 kts 282°
2026-05-08 11:41 63.69711 9.61085 30 ft 14 kts 334°
2026-05-08 11:41 63.69814 9.60974 30 ft 19 kts 333°
2026-05-08 11:42 63.69952 9.60824 30 ft 25 kts 334°
2026-05-08 11:42 63.70137 9.60624 28 ft 31 kts 335°
2026-05-08 11:42 63.70322 9.60418 30 ft 29 kts 333°
2026-05-08 11:42 63.70494 9.60230 29 ft 26 kts 334°
2026-05-08 11:43 63.70653 9.60053 27 ft 25 kts 334°
2026-05-08 11:43 63.70802 9.59892 30 ft 23 kts 334°
2026-05-08 11:43 63.70891 9.59794 28 ft 7 kts 334°
2026-05-08 11:43 63.70937 9.59744 30 ft 8 kts 334°
2026-05-08 11:44 63.71007 9.59634 31 ft 19 kts 308°
2026-05-08 11:44 63.71090 9.59382 26 ft 10 kts 304°
2026-05-08 11:44 63.71099 9.59350 26 ft 1 kts 302°
2026-05-08 11:44 63.71111 9.59223 26 ft 15 kts 260°
2026-05-08 11:45 63.71051 9.59130 26 ft 15 kts 163°
2026-05-08 11:45 63.70975 9.59210 29 ft 39 kts 154°
2026-05-08 11:45 63.70456 9.59786 31 ft 126 kts 154°
2026-05-08 11:45 63.69563 9.60716 539 ft 149 kts 153°
2026-05-08 11:46 63.68562 9.61709 1458 ft 163 kts 157°
2026-05-08 11:46 63.67469 9.62722 2322 ft 185 kts 152°
2026-05-08 11:46 63.66356 9.64327 2972 ft 192 kts 148°
2026-05-08 11:46 63.65090 9.65464 3583 ft 201 kts 171°
2026-05-08 11:47 63.63768 9.64924 4208 ft 199 kts 201°
2026-05-08 11:47 63.62670 9.62966 4868 ft 205 kts 236°
2026-05-08 11:47 63.62042 9.60038 5605 ft 207 kts 242°
2026-05-08 11:47 63.61354 9.57189 6358 ft 215 kts 238°
2026-05-08 11:48 63.60626 9.54047 6974 ft 233 kts 243°
2026-05-08 11:48 63.59955 9.50703 7536 ft 237 kts 242°
2026-05-08 11:48 63.58923 9.47876 8037 ft 235 kts 214°
2026-05-08 11:48 63.57532 9.45953 8627 ft 237 kts 212°
2026-05-08 11:49 63.56169 9.43842 9188 ft 237 kts 216°
2026-05-08 11:49 63.54806 9.41752 9767 ft 238 kts 213°
2026-05-08 11:49 63.53397 9.39764 10294 ft 239 kts 213°
2026-05-08 11:49 63.51958 9.37679 10838 ft 262 kts 213°
2026-05-08 11:50 63.50321 9.35288 11384 ft 299 kts 214°
2026-05-08 11:50 63.48485 9.32581 12003 ft 333 kts 214°
2026-05-08 11:50 63.46471 9.29631 12648 ft 353 kts 213°
2026-05-08 11:50 63.44389 9.26614 13280 ft 364 kts 213°
2026-05-08 11:51 63.42256 9.23569 13892 ft 365 kts 211°
2026-05-08 11:51 63.39862 9.21493 14456 ft 374 kts 194°
2026-05-08 11:51 63.37257 9.21003 15033 ft 382 kts 181°
2026-05-08 11:51 63.35165 9.21198 15504 ft 370 kts 180°
2026-05-08 11:52 63.32557 9.21426 16103 ft 379 kts 181°
2026-05-08 11:52 63.29872 9.21639 16688 ft 391 kts 181°
2026-05-08 11:52 63.27143 9.21914 17321 ft 395 kts 180°
2026-05-08 11:52 63.24376 9.22183 17951 ft 401 kts 181°
2026-05-08 11:53 63.21602 9.22406 18554 ft 401 kts 181°
2026-05-08 11:53 63.18792 9.22633 19119 ft 404 kts 181°
2026-05-08 11:53 63.15980 9.22891 19671 ft 407 kts 181°
2026-05-08 11:53 63.13133 9.23149 20243 ft 410 kts 181°
2026-05-08 11:54 63.10284 9.23393 20835 ft 411 kts 181°
2026-05-08 11:54 63.07411 9.23636 21441 ft 415 kts 181°
2026-05-08 11:54 63.04510 9.23888 22055 ft 419 kts 181°
2026-05-08 11:54 63.01591 9.24146 22679 ft 421 kts 181°
2026-05-08 11:55 62.98638 9.24401 23326 ft 427 kts 182°
2026-05-08 11:55 62.95663 9.24654 23916 ft 430 kts 182°
2026-05-08 11:55 62.92711 9.24916 24456 ft 423 kts 182°
2026-05-08 11:55 62.89752 9.25169 25023 ft 426 kts 182°
2026-05-08 11:56 62.86780 9.25417 25591 ft 429 kts 182°
2026-05-08 11:56 62.83783 9.25670 26162 ft 432 kts 182°
2026-05-08 11:56 62.80776 9.25933 26721 ft 433 kts 182°
2026-05-08 11:56 62.77757 9.26197 27355 ft 438 kts 182°
2026-05-08 11:57 62.74702 9.26448 27963 ft 440 kts 182°
2026-05-08 11:57 62.71627 9.26700 28602 ft 444 kts 182°
2026-05-08 11:57 62.68516 9.26967 29066 ft 452 kts 182°
2026-05-08 11:58 62.62128 9.27510 29102 ft 465 kts 182°
2026-05-08 11:58 62.55640 9.28061 29112 ft 466 kts 182°
2026-05-08 11:59 62.45900 9.28868 29111 ft 467 kts 182°
2026-05-08 11:59 62.39393 9.29419 29120 ft 467 kts 182°
2026-05-08 12:00 62.32939 9.29944 29131 ft 468 kts 182°
2026-05-08 12:00 62.26438 9.30488 29125 ft 468 kts 182°
2026-05-08 12:01 62.19947 9.31013 29115 ft 466 kts 182°
2026-05-08 12:01 62.13479 9.31547 29123 ft 466 kts 182°
2026-05-08 12:02 62.07003 9.32070 29128 ft 465 kts 182°
2026-05-08 12:02 62.00559 9.32596 29133 ft 448 kts 182°
2026-05-08 12:03 61.97602 9.32861 29123 ft 411 kts 182°
2026-05-08 12:03 61.94706 9.33077 29128 ft 420 kts 182°
2026-05-08 12:03 61.88784 9.33527 29145 ft 430 kts 181°
2026-05-08 12:04 61.82781 9.34031 29140 ft 432 kts 182°
2026-05-08 12:04 61.76784 9.34498 29140 ft 432 kts 181°
2026-05-08 12:05 61.70777 9.34980 29148 ft 431 kts 182°
2026-05-08 12:05 61.64773 9.35451 29148 ft 432 kts 182°
2026-05-08 12:06 61.61062 9.35747 29150 ft 432 kts 182°
2026-05-08 12:06 61.55046 9.36216 29152 ft 434 kts 181°
2026-05-08 12:07 61.49028 9.36693 29151 ft 432 kts 181°
2026-05-08 12:07 61.43004 9.37158 29152 ft 433 kts 181°
2026-05-08 12:08 61.36985 9.37629 29156 ft 434 kts 181°
2026-05-08 12:08 61.30962 9.38095 29156 ft 433 kts 181°
2026-05-08 12:09 61.24936 9.38560 29157 ft 433 kts 181°
2026-05-08 12:09 61.18918 9.39020 29159 ft 433 kts 181°
2026-05-08 12:10 61.12890 9.39483 29161 ft 433 kts 181°
2026-05-08 12:10 61.06893 9.39474 29150 ft 428 kts 192°
2026-05-08 12:11 61.01144 9.36444 29163 ft 427 kts 197°
2026-05-08 12:11 60.95398 9.33355 29156 ft 426 kts 197°
2026-05-08 12:12 60.89668 9.30224 29151 ft 426 kts 197°
2026-05-08 12:12 60.83961 9.27163 29149 ft 426 kts 197°
2026-05-08 12:13 60.78229 9.24070 29151 ft 427 kts 196°
2026-05-08 12:13 60.72488 9.21003 29134 ft 426 kts 196°
2026-05-08 12:14 60.66725 9.17924 29161 ft 428 kts 196°
2026-05-08 12:14 60.60967 9.14866 29160 ft 429 kts 196°
2026-05-08 12:15 60.55203 9.11811 29165 ft 427 kts 196°
2026-05-08 12:15 60.49437 9.08770 29172 ft 427 kts 196°
2026-05-08 12:16 60.43676 9.05738 29154 ft 429 kts 195°
2026-05-08 12:16 60.37893 9.02714 29165 ft 430 kts 195°
2026-05-08 12:17 60.32120 8.99701 29172 ft 428 kts 195°
2026-05-08 12:17 60.26334 8.96687 29178 ft 429 kts 195°
2026-05-08 12:18 60.20567 8.93706 29175 ft 429 kts 195°
2026-05-08 12:18 60.14782 8.90716 29172 ft 428 kts 195°
2026-05-08 12:19 60.08984 8.87736 29179 ft 430 kts 195°
2026-05-08 12:19 60.03192 8.84767 29179 ft 430 kts 195°
2026-05-08 12:20 59.97392 8.81806 29183 ft 429 kts 195°
2026-05-08 12:20 59.91597 8.78856 29205 ft 431 kts 195°
2026-05-08 12:21 59.85788 8.75913 29179 ft 432 kts 195°
2026-05-08 12:21 59.79969 8.72973 29180 ft 431 kts 195°
2026-05-08 12:22 59.74153 8.70046 29187 ft 431 kts 195°
2026-05-08 12:22 59.68334 8.67129 29192 ft 432 kts 195°
2026-05-08 12:23 59.62518 8.64223 29192 ft 431 kts 195°
2026-05-08 12:23 59.56671 8.61310 29199 ft 437 kts 194°
2026-05-08 12:24 59.51799 8.58894 29195 ft 433 kts 194°
2026-05-08 12:24 59.45927 8.55988 29192 ft 434 kts 194°
2026-05-08 12:25 59.40235 8.53183 29188 ft 435 kts 194°
2026-05-08 12:25 59.34370 8.50304 29182 ft 434 kts 194°
2026-05-08 12:26 59.28497 8.47427 29192 ft 436 kts 194°
2026-05-08 12:26 59.22619 8.44563 29187 ft 435 kts 194°
2026-05-08 12:27 59.16743 8.41704 29190 ft 435 kts 194°
2026-05-08 12:27 59.10866 8.38861 29191 ft 435 kts 194°
2026-05-08 12:28 59.04978 8.36018 29196 ft 435 kts 194°
2026-05-08 12:28 58.99292 8.33286 29199 ft 438 kts 194°
2026-05-08 12:29 58.93389 8.30456 29206 ft 436 kts 194°
2026-05-08 12:29 58.87486 8.27639 29208 ft 437 kts 194°
2026-05-08 12:30 58.81593 8.24834 29208 ft 436 kts 194°
2026-05-08 12:30 58.75683 8.22033 29208 ft 437 kts 193°
2026-05-08 12:31 58.69750 8.19229 29237 ft 439 kts 194°
2026-05-08 12:31 58.63825 8.16441 29224 ft 439 kts 194°
2026-05-08 12:32 58.57892 8.13657 29233 ft 438 kts 193°
2026-05-08 12:32 58.51966 8.10886 29236 ft 439 kts 194°
2026-05-08 12:33 58.46078 8.08143 29239 ft 439 kts 193°
2026-05-08 12:33 58.40105 8.05369 29241 ft 438 kts 194°
2026-05-08 12:34 58.34212 8.02643 29265 ft 439 kts 193°
2026-05-08 12:34 58.28277 7.99906 29276 ft 438 kts 193°
2026-05-08 12:35 58.22351 7.97184 29271 ft 439 kts 193°
2026-05-08 12:35 58.16400 7.94457 29270 ft 440 kts 193°
2026-05-08 12:36 58.10452 7.91750 29265 ft 440 kts 193°
2026-05-08 12:36 58.07417 7.91077 29258 ft 441 kts 179°
2026-05-08 12:36 58.04366 7.91555 29269 ft 440 kts 175°
2026-05-08 12:37 57.98262 7.92665 29270 ft 441 kts 175°
2026-05-08 12:37 57.92155 7.93784 29268 ft 441 kts 175°
2026-05-08 12:38 57.86037 7.94872 29251 ft 442 kts 175°
2026-05-08 12:38 57.79914 7.95971 29251 ft 441 kts 175°
2026-05-08 12:39 57.73796 7.97064 29246 ft 442 kts 175°
2026-05-08 12:39 57.67672 7.98151 29245 ft 441 kts 175°
2026-05-08 12:40 57.61552 7.99234 29248 ft 442 kts 175°
2026-05-08 12:40 57.55429 8.00318 29248 ft 441 kts 175°
2026-05-08 12:41 57.49306 8.01395 29246 ft 442 kts 175°
2026-05-08 12:41 57.43184 8.02466 29240 ft 441 kts 175°
2026-05-08 12:42 57.37057 8.03540 29246 ft 443 kts 175°
2026-05-08 12:42 57.30931 8.04607 29240 ft 442 kts 175°
2026-05-08 12:43 57.24788 8.04654 29244 ft 443 kts 183°
2026-05-08 12:43 57.18641 8.04101 29244 ft 442 kts 182°
2026-05-08 12:44 57.12485 8.03640 29245 ft 443 kts 182°
2026-05-08 12:44 57.06308 8.03137 29248 ft 445 kts 182°
2026-05-08 12:45 57.00138 8.02649 29250 ft 444 kts 182°
2026-05-08 12:45 56.93957 8.02164 29251 ft 444 kts 182°
2026-05-08 12:46 56.87787 8.01675 29246 ft 444 kts 182°
2026-05-08 12:46 56.81629 8.01192 29246 ft 449 kts 182°
2026-05-08 12:47 56.75404 8.00707 29242 ft 447 kts 182°
2026-05-08 12:47 56.69396 8.00235 29243 ft 448 kts 182°
2026-05-08 12:48 56.63179 7.99754 29243 ft 448 kts 182°
2026-05-08 12:48 56.56947 7.99273 29245 ft 449 kts 182°
2026-05-08 12:49 56.50670 7.98783 29247 ft 450 kts 182°
2026-05-08 12:49 56.44403 7.98306 29249 ft 451 kts 182°
2026-05-08 12:50 56.38135 7.97820 29246 ft 450 kts 182°
2026-05-08 12:50 56.31866 7.97345 29246 ft 451 kts 182°
2026-05-08 12:51 56.22425 7.96625 29240 ft 452 kts 183°
2026-05-08 12:52 56.16330 7.96163 29241 ft 453 kts 183°
2026-05-08 12:52 56.07086 7.95464 29240 ft 453 kts 183°
2026-05-08 12:53 56.00758 7.94988 29237 ft 458 kts 183°
2026-05-08 12:53 55.94698 7.94534 29234 ft 452 kts 183°
2026-05-08 12:54 55.88628 7.94078 29226 ft 454 kts 183°
2026-05-08 12:54 55.82329 7.93612 29224 ft 453 kts 183°
2026-05-08 12:55 55.76025 7.93142 29231 ft 453 kts 183°
2026-05-08 12:55 55.69726 7.92674 29228 ft 453 kts 183°
2026-05-08 12:56 55.63421 7.92212 29226 ft 453 kts 183°
2026-05-08 12:56 55.57127 7.91748 29224 ft 453 kts 183°
2026-05-08 12:57 55.50994 7.91297 29223 ft 456 kts 183°
2026-05-08 12:57 55.44643 7.90834 29227 ft 456 kts 184°
2026-05-08 12:58 55.38522 7.90388 29224 ft 457 kts 183°
2026-05-08 12:58 55.32179 7.89925 29223 ft 456 kts 183°
2026-05-08 12:59 55.25828 7.89468 29222 ft 458 kts 184°
2026-05-08 12:59 55.19433 7.89005 29221 ft 459 kts 184°
2026-05-08 13:00 55.13045 7.88545 29222 ft 460 kts 184°
2026-05-08 13:00 55.06648 7.88087 29218 ft 459 kts 184°
2026-05-08 13:01 55.00257 7.87632 29207 ft 460 kts 184°
2026-05-08 13:01 54.93830 7.87122 29218 ft 462 kts 185°
2026-05-08 13:02 54.87603 7.86627 29217 ft 463 kts 185°
2026-05-08 13:02 54.81378 7.86133 29220 ft 462 kts 185°
2026-05-08 13:03 54.74951 7.85629 29203 ft 463 kts 185°
2026-05-08 13:03 54.68486 7.85117 29213 ft 465 kts 185°
2026-05-08 13:04 54.62028 7.84614 29213 ft 465 kts 185°
2026-05-08 13:04 54.55606 7.84114 29210 ft 464 kts 185°
2026-05-08 13:05 54.49140 7.83607 29197 ft 466 kts 185°
2026-05-08 13:05 54.42660 7.83106 29207 ft 467 kts 185°
2026-05-08 13:06 54.36422 7.82625 29200 ft 466 kts 185°
2026-05-08 13:06 54.29940 7.82122 29201 ft 466 kts 185°
2026-05-08 13:07 54.23708 7.81645 29191 ft 466 kts 186°
2026-05-08 13:07 54.17234 7.81150 29199 ft 466 kts 185°
2026-05-08 13:08 54.10974 7.80669 29200 ft 465 kts 185°
2026-05-08 13:08 54.04738 7.80195 29196 ft 466 kts 186°
2026-05-08 13:09 53.98455 7.79720 29183 ft 465 kts 185°
2026-05-08 13:09 53.92005 7.79228 29190 ft 465 kts 185°
2026-05-08 13:10 53.85544 7.78743 29183 ft 464 kts 185°
2026-05-08 13:10 53.79334 7.78276 29181 ft 465 kts 185°
2026-05-08 13:11 53.73963 7.77870 29164 ft 464 kts 185°
2026-05-08 13:11 53.67524 7.77392 29175 ft 464 kts 185°
2026-05-08 13:12 53.61401 7.76933 29175 ft 463 kts 185°
2026-05-08 13:12 53.55072 7.76461 29181 ft 464 kts 185°
2026-05-08 13:13 53.48625 7.75986 29171 ft 463 kts 185°
2026-05-08 13:13 53.42410 7.75523 29167 ft 463 kts 185°
2026-05-08 13:14 53.35976 7.75052 29167 ft 463 kts 185°
2026-05-08 13:14 53.29547 7.74576 29167 ft 463 kts 185°
2026-05-08 13:15 53.23152 7.74109 29163 ft 463 kts 185°
2026-05-08 13:15 53.16718 7.73639 29159 ft 463 kts 185°
2026-05-08 13:16 53.10290 7.73172 29161 ft 463 kts 185°
2026-05-08 13:16 53.03851 7.72702 29162 ft 463 kts 185°
2026-05-08 13:17 52.97425 7.72238 29165 ft 462 kts 185°
2026-05-08 13:17 52.91003 7.71713 29163 ft 462 kts 185°
2026-05-08 13:18 52.84584 7.71217 29161 ft 462 kts 185°
2026-05-08 13:18 52.78161 7.70700 29158 ft 462 kts 185°
2026-05-08 13:19 52.71745 7.70201 29157 ft 460 kts 185°
2026-05-08 13:19 52.65338 7.69696 29151 ft 462 kts 185°
2026-05-08 13:20 52.58929 7.69197 29158 ft 461 kts 185°
2026-05-08 13:20 52.52510 7.68695 29156 ft 462 kts 185°
2026-05-08 13:21 52.46112 7.68201 29146 ft 460 kts 185°
2026-05-08 13:21 52.39704 7.67701 29152 ft 461 kts 185°
2026-05-08 13:22 52.33307 7.67208 29150 ft 461 kts 185°
2026-05-08 13:22 52.26900 7.66715 29141 ft 460 kts 185°
2026-05-08 13:23 52.20514 7.66223 29149 ft 460 kts 185°
2026-05-08 13:23 52.14113 7.65735 29149 ft 460 kts 185°
2026-05-08 13:24 52.07726 7.65245 29150 ft 460 kts 185°
2026-05-08 13:24 52.01332 7.64760 29139 ft 458 kts 185°
2026-05-08 13:25 51.94957 7.64273 29141 ft 460 kts 185°
2026-05-08 13:25 51.88587 7.63793 29137 ft 458 kts 185°
2026-05-08 13:26 51.82205 7.63309 29130 ft 459 kts 185°
2026-05-08 13:26 51.75848 7.62831 29129 ft 456 kts 185°
2026-05-08 13:27 51.69498 7.62354 29129 ft 457 kts 185°
2026-05-08 13:27 51.63152 7.61879 29128 ft 457 kts 185°
2026-05-08 13:28 51.56843 7.61408 29125 ft 457 kts 185°
2026-05-08 13:28 51.50507 7.60936 29120 ft 455 kts 184°
2026-05-08 13:29 51.44169 7.60466 29124 ft 456 kts 184°
2026-05-08 13:29 51.37835 7.59997 29122 ft 456 kts 184°
2026-05-08 13:30 51.31490 7.59527 29126 ft 456 kts 184°
2026-05-08 13:30 51.25167 7.59063 29115 ft 455 kts 184°
2026-05-08 13:31 51.18826 7.58597 29118 ft 455 kts 184°
2026-05-08 13:31 51.12500 7.58132 29120 ft 456 kts 184°
2026-05-08 13:32 51.06169 7.57671 29114 ft 455 kts 184°
2026-05-08 13:32 50.99841 7.57211 29122 ft 456 kts 184°
2026-05-08 13:33 50.93510 7.56750 29123 ft 455 kts 184°
2026-05-08 13:33 50.87184 7.56292 29120 ft 456 kts 184°
2026-05-08 13:34 50.80850 7.55832 29116 ft 455 kts 184°
2026-05-08 13:34 50.74520 7.55380 29119 ft 456 kts 184°
2026-05-08 13:35 50.68178 7.55423 29109 ft 457 kts 180°
2026-05-08 13:35 50.61827 7.55667 29114 ft 456 kts 180°
2026-05-08 13:36 50.55475 7.55958 29121 ft 457 kts 180°
2026-05-08 13:36 50.49123 7.56220 29111 ft 456 kts 180°
2026-05-08 13:37 50.42868 7.56499 28928 ft 426 kts 180°
2026-05-08 13:37 50.40060 7.56624 28487 ft 395 kts 180°
2026-05-08 13:37 50.37407 7.56730 28046 ft 368 kts 180°
2026-05-08 13:38 50.34925 7.56833 27608 ft 348 kts 180°
2026-05-08 13:38 50.32556 7.56713 27157 ft 341 kts 190°
2026-05-08 13:38 50.30301 7.55831 26643 ft 323 kts 203°
2026-05-08 13:38 50.28331 7.54222 26125 ft 319 kts 216°
2026-05-08 13:39 50.26651 7.51981 25627 ft 318 kts 226°
2026-05-08 13:39 50.25147 7.49459 25141 ft 317 kts 228°
2026-05-08 13:39 50.23670 7.46920 24667 ft 314 kts 228°
2026-05-08 13:39 50.22186 7.44445 24194 ft 311 kts 222°
2026-05-08 13:40 50.20327 7.42754 23704 ft 311 kts 201°
2026-05-08 13:40 50.18257 7.41780 23159 ft 311 kts 197°
2026-05-08 13:40 50.16171 7.40949 22628 ft 308 kts 196°
2026-05-08 13:40 50.14100 7.40154 22088 ft 305 kts 195°
2026-05-08 13:41 50.12047 7.39388 21562 ft 303 kts 195°
2026-05-08 13:41 50.09997 7.38632 21046 ft 302 kts 195°
2026-05-08 13:41 50.08648 7.38135 20699 ft 300 kts 195°
2026-05-08 13:42 50.07583 7.37741 20439 ft 299 kts 195°
2026-05-08 13:42 50.05566 7.36992 19935 ft 297 kts 195°
2026-05-08 13:42 50.03561 7.36242 19442 ft 295 kts 195°
2026-05-08 13:42 50.01571 7.35493 18959 ft 294 kts 195°
2026-05-08 13:43 49.99607 7.34748 18487 ft 292 kts 195°
2026-05-08 13:43 49.97646 7.34004 17966 ft 291 kts 195°
2026-05-08 13:43 49.95697 7.33264 17431 ft 288 kts 195°
2026-05-08 13:43 49.93754 7.32408 16902 ft 284 kts 199°
2026-05-08 13:44 49.91913 7.31454 16368 ft 282 kts 200°
2026-05-08 13:44 49.90056 7.30472 15868 ft 282 kts 200°
2026-05-08 13:44 49.88204 7.29489 15358 ft 280 kts 200°
2026-05-08 13:44 49.86368 7.28511 14869 ft 278 kts 200°
2026-05-08 13:45 49.84542 7.27544 14383 ft 277 kts 200°
2026-05-08 13:45 49.82723 7.26588 13907 ft 276 kts 200°
2026-05-08 13:45 49.80907 7.25637 13374 ft 274 kts 200°
2026-05-08 13:45 49.79114 7.24700 12835 ft 269 kts 200°
2026-05-08 13:46 49.77360 7.23777 12337 ft 266 kts 200°
2026-05-08 13:46 49.75614 7.22858 11815 ft 264 kts 200°
2026-05-08 13:46 49.73884 7.21949 11310 ft 261 kts 200°
2026-05-08 13:46 49.72168 7.21047 10816 ft 260 kts 200°
2026-05-08 13:47 49.70465 7.20153 10336 ft 258 kts 200°
2026-05-08 13:47 49.68776 7.19265 9843 ft 255 kts 200°
2026-05-08 13:47 49.67099 7.18383 9311 ft 255 kts 200°
2026-05-08 13:47 49.65425 7.17499 8794 ft 254 kts 200°
2026-05-08 13:48 49.63760 7.16619 8266 ft 251 kts 200°
2026-05-08 13:48 49.62120 7.15750 7759 ft 248 kts 200°
2026-05-08 13:48 49.60485 7.14878 7264 ft 250 kts 199°
2026-05-08 13:48 49.58851 7.14002 6773 ft 248 kts 199°
2026-05-08 13:49 49.57213 7.13120 6276 ft 250 kts 199°
2026-05-08 13:49 49.55583 7.12216 5753 ft 248 kts 202°
2026-05-08 13:49 49.54045 7.11026 5248 ft 247 kts 208°
2026-05-08 13:49 49.52572 7.09718 5021 ft 242 kts 209°
2026-05-08 13:50 49.51140 7.08459 5000 ft 225 kts 208°
2026-05-08 13:50 49.49833 7.07317 4985 ft 212 kts 208°
2026-05-08 13:50 49.48539 7.06183 4985 ft 215 kts 209°
2026-05-08 13:50 49.47241 7.05053 4986 ft 214 kts 208°
2026-05-08 13:51 49.45949 7.03910 4982 ft 215 kts 210°
2026-05-08 13:51 49.44557 7.03023 4587 ft 218 kts 189°
2026-05-08 13:51 49.43065 7.03014 4215 ft 209 kts 170°
2026-05-08 13:51 49.41804 7.03734 4012 ft 180 kts 148°
2026-05-08 13:52 49.40871 7.04939 3978 ft 175 kts 129°
2026-05-08 13:52 49.40201 7.06491 3991 ft 176 kts 121°
2026-05-08 13:52 49.39504 7.08033 3988 ft 169 kts 126°
2026-05-08 13:52 49.39000 7.09530 3751 ft 159 kts 102°
2026-05-08 13:53 49.39134 7.11136 3355 ft 150 kts 72°
2026-05-08 13:53 49.39291 7.12689 3068 ft 147 kts 89°
2026-05-08 13:53 49.39306 7.14235 3005 ft 147 kts 84°
2026-05-08 13:53 49.39500 7.15784 2991 ft 148 kts 74°
2026-05-08 13:54 49.39682 7.17335 2980 ft 150 kts 85°
2026-05-08 13:54 49.39736 7.18903 2998 ft 149 kts 84°
2026-05-08 13:54 49.39899 7.20469 2986 ft 151 kts 79°
2026-05-08 13:54 49.40059 7.22052 2980 ft 151 kts 83°
2026-05-08 13:55 49.40172 7.23657 3003 ft 151 kts 82°
2026-05-08 13:55 49.40350 7.25222 2989 ft 149 kts 77°
2026-05-08 13:55 49.40794 7.28310 3006 ft 152 kts 85°
2026-05-08 13:56 49.40857 7.29906 3010 ft 153 kts 84°
2026-05-08 13:56 49.40956 7.31509 2987 ft 150 kts 83°
2026-05-08 13:56 49.41071 7.33086 2993 ft 145 kts 82°
2026-05-08 13:56 49.41189 7.34625 2995 ft 146 kts 82°
2026-05-08 13:57 49.41312 7.36148 3010 ft 144 kts 83°
2026-05-08 13:57 49.41435 7.37650 2996 ft 144 kts 83°
2026-05-08 13:57 49.41557 7.39186 2929 ft 137 kts 83°
2026-05-08 13:57 49.41668 7.40637 2616 ft 139 kts 83°
2026-05-08 13:58 49.41781 7.42142 2386 ft 147 kts 82°
2026-05-08 13:58 49.41905 7.43709 2164 ft 149 kts 82°
2026-05-08 13:58 49.42040 7.45278 1951 ft 148 kts 81°
2026-05-08 13:58 49.42222 7.46854 1826 ft 151 kts 78°
2026-05-08 13:59 49.42387 7.48419 1733 ft 146 kts 82°
2026-05-08 13:59 49.42502 7.49969 1578 ft 145 kts 82°
2026-05-08 13:59 49.42649 7.51492 1423 ft 143 kts 78°
2026-05-08 13:59 49.42814 7.52994 1285 ft 142 kts 80°
2026-05-08 14:00 49.42951 7.54504 1170 ft 143 kts 81°
2026-05-08 14:00 49.43083 7.56003 1021 ft 139 kts 81°
2026-05-08 14:00 49.43174 7.56970 917 ft 133 kts 82°
2026-05-08 14:00 49.43292 7.58304 786 ft 115 kts 82°
2026-05-08 14:01 49.43386 7.59355 772 ft 81 kts 82°
2026-05-08 14:01 49.43430 7.59861 768 ft 17 kts 83°
2026-05-08 14:01 49.43459 7.60036 767 ft 16 kts 51°
2026-05-08 14:01 49.43517 7.60051 768 ft 7 kts 339°
2026-05-08 14:02 49.43572 7.60012 768 ft 11 kts 335°
2026-05-08 14:02 49.43643 7.59954 767 ft 13 kts 328°
2026-05-08 14:02 49.43730 7.59870 767 ft 18 kts 328°
2026-05-08 14:02 49.43848 7.59754 769 ft 19 kts 328°
2026-05-08 14:03 49.43949 7.59655 769 ft 15 kts 328°
2026-05-08 14:03 49.44003 7.59617 769 ft 6 kts 318°
2026-05-08 14:03 49.44011 7.59559 769 ft 6 kts 268°
2026-05-08 14:03 49.44009 7.59504 769 ft 0 kts 266°
2026-05-08 14:04 49.44009 7.59503 769 ft 0 kts 266°
2026-05-08 14:04 49.44009 7.59504 769 ft 0 kts 266°